Time,TemperatureF,DewpointF,PressureIn,WindDirection,WindDirectionDegrees,WindSpeedMPH,WindSpeedGustMPH,Humidity,HourlyPrecipIn,Conditions,Clouds,dailyrainin,SoftwareType,DateUTC
2013-02-13 00:13:00,4.0,1.0,30.22,SW,227,4.0,4.0,85,0.00,,,0.00,weatherlink.com 1.10,2013-02-13 07:13:00,
2013-02-13 00:29:00,4.4,2.0,30.22,SSW,206,2.0,6.0,88,0.00,,,0.00,weatherlink.com 1.10,2013-02-13 07:29:00,
2013-02-13 00:44:00,5.4,3.0,30.22,SW,219,5.0,6.0,90,0.00,,,0.00,weatherlink.com 1.10,2013-02-13 07:44:00,
2013-02-13 00:59:00,7.3,5.0,30.22,SSW,207,6.0,7.0,91,0.00,,,0.00,weatherlink.com 1.10,2013-02-13 07:59:00,
2013-02-13 01:14:00,9.4,7.0,30.22,SSW,207,4.0,6.0,91,0.00,,,0.00,weatherlink.com 1.10,2013-02-13 08:14:00,
2013-02-13 01:29:00,11.1,9.0,30.22,SSW,213,2.0,6.0,90,0.00,,,0.00,weatherlink.com 1.10,2013-02-13 08:29:00,
2013-02-13 01:44:00,12.3,9.0,30.22,SW,215,2.0,6.0,88,0.00,,,0.00,weatherlink.com 1.10,2013-02-13 08:44:00,
2013-02-13 01:59:00,12.9,10.0,30.23,NNW,336,0.0,3.0,88,0.00,,,0.00,weatherlink.com 1.10,2013-02-13 08:59:00,
2013-02-13 02:14:00,13.1,10.0,30.23,NNW,333,1.0,3.0,87,0.00,,,0.00,weatherlink.com 1.10,2013-02-13 09:14:00,
2013-02-13 02:29:00,13.1,10.0,30.23,NNW,333,0.0,0.0,87,0.00,,,0.00,weatherlink.com 1.10,2013-02-13 09:29:00,
2013-02-13 02:44:00,13.4,10.0,30.22,NNW,333,0.0,0.0,87,0.00,,,0.00,weatherlink.com 1.10,2013-02-13 09:44:00,
2013-02-13 02:59:00,13.4,9.0,30.21,South,184,2.0,5.0,84,0.00,,,0.00,weatherlink.com 1.10,2013-02-13 09:59:00,
2013-02-13 03:15:00,12.8,8.0,30.21,South,186,2.0,6.0,81,0.00,,,0.00,weatherlink.com 1.10,2013-02-13 10:15:00,
2013-02-13 03:29:00,12.4,8.0,30.20,SSW,192,2.0,4.0,81,0.00,,,0.00,weatherlink.com 1.10,2013-02-13 10:29:00,
2013-02-13 03:45:00,11.8,7.0,30.20,SSW,193,1.0,4.0,81,0.00,,,0.00,weatherlink.com 1.10,2013-02-13 10:45:00,
2013-02-13 04:15:00,11.8,8.0,30.20,SW,229,1.0,4.0,85,0.00,,,0.00,weatherlink.com 1.10,2013-02-13 11:15:00,
2013-02-13 04:30:00,12.2,9.0,30.20,SW,227,3.0,5.0,85,0.00,,,0.00,weatherlink.com 1.10,2013-02-13 11:30:00,
2013-02-13 04:45:00,12.7,9.0,30.20,SW,225,1.0,4.0,86,0.00,,,0.00,weatherlink.com 1.10,2013-02-13 11:45:00,
2013-02-13 05:00:00,13.2,10.0,30.20,SW,226,0.0,0.0,86,0.00,,,0.00,weatherlink.com 1.10,2013-02-13 12:00:00,
2013-02-13 05:15:00,13.7,10.0,30.21,NW,315,0.0,5.0,84,0.00,,,0.00,weatherlink.com 1.10,2013-02-13 12:15:00,
2013-02-13 05:30:00,13.9,10.0,30.21,NW,315,0.0,0.0,85,0.00,,,0.00,weatherlink.com 1.10,2013-02-13 12:30:00,
2013-02-13 05:45:00,14.0,10.0,30.21,NW,315,0.0,0.0,85,0.00,,,0.00,weatherlink.com 1.10,2013-02-13 12:45:00,
2013-02-13 06:00:00,14.1,11.0,30.21,NW,315,0.0,0.0,86,0.00,,,0.00,weatherlink.com 1.10,2013-02-13 13:00:00,
2013-02-13 06:16:00,14.3,11.0,30.21,NW,311,0.0,0.0,86,0.00,,,0.00,weatherlink.com 1.10,2013-02-13 13:16:00,
2013-02-13 06:30:00,14.4,11.0,30.20,NW,309,0.0,0.0,86,0.00,,,0.00,weatherlink.com 1.10,2013-02-13 13:30:00,
2013-02-13 06:46:00,14.2,10.0,30.20,SW,227,0.0,0.0,84,0.00,,,0.00,weatherlink.com 1.10,2013-02-13 13:46:00,
2013-02-13 07:01:00,14.0,10.0,30.20,SW,227,0.0,0.0,83,0.00,,,0.00,weatherlink.com 1.10,2013-02-13 14:01:00,
2013-02-13 07:16:00,13.5,9.0,30.21,West,275,0.0,0.0,81,0.00,,,0.00,weatherlink.com 1.10,2013-02-13 14:16:00,
2013-02-13 07:31:00,12.7,7.0,30.20,West,275,0.0,0.0,79,0.00,,,0.00,weatherlink.com 1.10,2013-02-13 14:31:00,
2013-02-13 07:46:00,12.0,7.0,30.20,West,275,0.0,0.0,79,0.00,,,0.00,weatherlink.com 1.10,2013-02-13 14:46:00,
2013-02-13 08:01:00,12.0,8.0,30.20,West,275,0.0,0.0,85,0.00,,,0.00,weatherlink.com 1.10,2013-02-13 15:01:00,
2013-02-13 08:16:00,13.1,10.0,30.21,WNW,293,0.0,0.0,87,0.00,,,0.00,weatherlink.com 1.10,2013-02-13 15:16:00,
2013-02-13 08:31:00,15.7,12.0,30.21,NW,315,3.0,4.0,85,0.00,,,0.00,weatherlink.com 1.10,2013-02-13 15:31:00,
2013-02-13 08:46:00,18.3,14.0,30.22,NNW,328,0.0,4.0,82,0.00,,,0.00,weatherlink.com 1.10,2013-02-13 15:46:00,
2013-02-13 09:01:00,22.1,16.0,30.23,NNW,347,0.0,5.0,76,0.00,,,0.00,weatherlink.com 1.10,2013-02-13 16:01:00,
2013-02-13 09:16:00,25.3,17.0,30.23,NNE,15,2.0,5.0,71,0.00,,,0.00,weatherlink.com 1.10,2013-02-13 16:16:00,
2013-02-13 09:31:00,27.1,18.0,30.23,ESE,109,1.0,4.0,68,0.00,,,0.00,weatherlink.com 1.10,2013-02-13 16:31:00,
2013-02-13 09:46:00,26.9,17.0,30.22,SE,125,1.0,4.0,65,0.00,,,0.00,weatherlink.com 1.10,2013-02-13 16:46:00,
2013-02-13 10:01:00,25.7,17.0,30.22,ESE,115,0.0,3.0,70,0.00,,,0.00,weatherlink.com 1.10,2013-02-13 17:01:00,
2013-02-13 10:17:00,26.8,17.0,30.22,ESE,119,0.0,4.0,67,0.00,,,0.00,weatherlink.com 1.10,2013-02-13 17:17:00,
2013-02-13 10:32:00,28.2,18.0,30.23,NNE,26,4.0,5.0,67,0.00,,,0.00,weatherlink.com 1.10,2013-02-13 17:32:00,
2013-02-13 10:47:00,29.0,19.0,30.23,NNW,346,2.0,5.0,66,0.00,,,0.00,weatherlink.com 1.10,2013-02-13 17:47:00,
2013-02-13 11:02:00,28.7,19.0,30.23,NNW,346,1.0,9.0,66,0.00,,,0.00,weatherlink.com 1.10,2013-02-13 18:02:00,
2013-02-13 11:17:00,29.2,19.0,30.22,NW,316,3.0,8.0,65,0.00,,,0.00,weatherlink.com 1.10,2013-02-13 18:17:00,
2013-02-13 11:32:00,29.2,19.0,30.22,NNW,329,5.0,9.0,65,0.00,,,0.00,weatherlink.com 1.10,2013-02-13 18:32:00,
2013-02-13 11:47:00,29.9,19.0,30.22,North,9,0.0,9.0,64,0.00,,,0.00,weatherlink.com 1.10,2013-02-13 18:47:00,
2013-02-13 12:02:00,30.6,20.0,30.22,NNW,342,4.0,8.0,64,0.00,,,0.00,weatherlink.com 1.10,2013-02-13 19:02:00,
2013-02-13 12:17:00,31.1,20.0,30.21,NNE,20,3.0,9.0,64,0.00,,,0.00,weatherlink.com 1.10,2013-02-13 19:17:00,
2013-02-13 12:32:00,30.8,20.0,30.21,NNW,338,7.0,10.0,64,0.01,,,0.01,weatherlink.com 1.10,2013-02-13 19:32:00,
2013-02-13 12:47:00,30.3,20.0,30.21,North,355,5.0,13.0,65,0.01,,,0.01,weatherlink.com 1.10,2013-02-13 19:47:00,
2013-02-13 13:02:00,31.0,19.0,30.20,NNE,16,4.0,12.0,62,0.01,,,0.01,weatherlink.com 1.10,2013-02-13 20:02:00,
2013-02-13 13:18:00,31.2,19.0,30.21,North,360,0.0,9.0,61,0.01,,,0.01,weatherlink.com 1.10,2013-02-13 20:18:00,
2013-02-13 13:32:00,31.7,19.0,30.20,NNW,346,3.0,5.0,60,0.00,,,0.01,weatherlink.com 1.10,2013-02-13 20:32:00,
2013-02-13 13:47:00,32.3,20.0,30.19,NE,36,3.0,5.0,61,0.00,,,0.01,weatherlink.com 1.10,2013-02-13 20:47:00,
2013-02-13 14:02:00,33.0,20.0,30.19,SSE,151,0.0,6.0,58,0.00,,,0.01,weatherlink.com 1.10,2013-02-13 21:02:00,
2013-02-13 14:17:00,32.8,19.0,30.19,SE,128,1.0,7.0,57,0.00,,,0.01,weatherlink.com 1.10,2013-02-13 21:17:00,
2013-02-13 14:33:00,32.3,19.0,30.18,ESE,104,2.0,9.0,59,0.00,,,0.01,weatherlink.com 1.10,2013-02-13 21:33:00,
2013-02-13 14:48:00,32.8,19.0,30.18,South,186,0.0,3.0,56,0.00,,,0.01,weatherlink.com 1.10,2013-02-13 21:48:00,
2013-02-13 15:03:00,33.2,19.0,30.18,SE,136,2.0,6.0,56,0.00,,,0.01,weatherlink.com 1.10,2013-02-13 22:03:00,
2013-02-13 15:18:00,33.3,20.0,30.19,East,91,2.0,8.0,59,0.00,,,0.01,weatherlink.com 1.10,2013-02-13 22:18:00,
2013-02-13 15:33:00,33.5,20.0,30.19,NNE,25,3.0,8.0,57,0.00,,,0.01,weatherlink.com 1.10,2013-02-13 22:33:00,
2013-02-13 15:48:00,33.4,21.0,30.19,NNW,332,4.0,6.0,60,0.00,,,0.01,weatherlink.com 1.10,2013-02-13 22:48:00,
2013-02-13 16:03:00,33.7,19.0,30.19,North,355,0.0,4.0,56,0.01,,,0.02,weatherlink.com 1.10,2013-02-13 23:03:00,
2013-02-13 16:18:00,33.4,21.0,30.18,North,355,2.0,3.0,60,0.01,,,0.02,weatherlink.com 1.10,2013-02-13 23:18:00,
2013-02-13 16:33:00,33.5,19.0,30.18,SE,126,2.0,4.0,56,0.01,,,0.02,weatherlink.com 1.10,2013-02-13 23:33:00,
2013-02-13 16:49:00,32.9,18.0,30.18,SE,128,1.0,3.0,54,0.01,,,0.02,weatherlink.com 1.10,2013-02-13 23:49:00,
2013-02-13 17:03:00,32.6,20.0,30.18,SE,128,0.0,0.0,60,0.00,,,0.02,weatherlink.com 1.10,2013-02-14 00:03:00,
2013-02-13 17:18:00,32.1,19.0,30.18,ENE,69,3.0,4.0,60,0.00,,,0.02,weatherlink.com 1.10,2013-02-14 00:18:00,
2013-02-13 17:33:00,31.1,19.0,30.18,ENE,69,0.0,4.0,60,0.00,,,0.02,weatherlink.com 1.10,2013-02-14 00:33:00,
2013-02-13 17:49:00,29.3,18.0,30.18,NW,318,2.0,5.0,63,0.00,,,0.02,weatherlink.com 1.10,2013-02-14 00:49:00,
2013-02-13 18:04:00,27.9,17.0,30.18,WNW,300,2.0,5.0,65,0.00,,,0.02,weatherlink.com 1.10,2013-02-14 01:04:00,
2013-02-13 18:19:00,26.5,17.0,30.18,WNW,300,6.0,7.0,68,0.00,,,0.02,weatherlink.com 1.10,2013-02-14 01:19:00,
2013-02-13 18:34:00,25.6,17.0,30.19,West,278,3.0,6.0,70,0.00,,,0.02,weatherlink.com 1.10,2013-02-14 01:34:00,
2013-02-13 18:49:00,24.9,17.0,30.19,West,281,3.0,6.0,71,0.00,,,0.02,weatherlink.com 1.10,2013-02-14 01:49:00,
2013-02-13 19:04:00,24.1,16.0,30.19,West,272,3.0,5.0,71,0.00,,,0.02,weatherlink.com 1.10,2013-02-14 02:04:00,
2013-02-13 19:19:00,23.4,15.0,30.19,West,269,3.0,5.0,71,0.00,,,0.02,weatherlink.com 1.10,2013-02-14 02:19:00,
2013-02-13 19:34:00,22.7,15.0,30.19,West,269,0.0,4.0,72,0.00,,,0.02,weatherlink.com 1.10,2013-02-14 02:34:00,
2013-02-13 19:49:00,21.4,14.0,30.20,West,268,0.0,4.0,73,0.00,,,0.02,weatherlink.com 1.10,2013-02-14 02:49:00,
2013-02-13 20:04:00,20.6,14.0,30.20,West,268,0.0,0.0,74,0.00,,,0.02,weatherlink.com 1.10,2013-02-14 03:04:00,
2013-02-13 20:20:00,19.5,13.0,30.20,West,268,0.0,0.0,75,0.00,,,0.02,weatherlink.com 1.10,2013-02-14 03:20:00,
2013-02-13 20:34:00,18.3,12.0,30.20,West,268,0.0,0.0,75,0.00,,,0.02,weatherlink.com 1.10,2013-02-14 03:34:00,
2013-02-13 20:49:00,17.2,11.0,30.20,West,268,0.0,0.0,76,0.00,,,0.02,weatherlink.com 1.10,2013-02-14 03:49:00,
2013-02-13 21:05:00,16.0,10.0,30.20,West,268,0.0,0.0,77,0.00,,,0.02,weatherlink.com 1.10,2013-02-14 04:05:00,
2013-02-13 21:20:00,15.0,10.0,30.20,West,268,0.0,0.0,79,0.00,,,0.02,weatherlink.com 1.10,2013-02-14 04:20:00,
2013-02-13 21:50:00,13.4,9.0,30.20,West,268,0.0,0.0,81,0.00,,,0.02,weatherlink.com 1.10,2013-02-14 04:50:00,
2013-02-13 22:05:00,12.7,8.0,30.20,West,268,0.0,0.0,82,0.00,,,0.02,weatherlink.com 1.10,2013-02-14 05:05:00,
2013-02-13 22:20:00,12.1,8.0,30.20,West,268,0.0,0.0,82,0.00,,,0.02,weatherlink.com 1.10,2013-02-14 05:20:00,
2013-02-13 22:35:00,11.6,7.0,30.20,West,268,0.0,0.0,83,0.00,,,0.02,weatherlink.com 1.10,2013-02-14 05:35:00,
2013-02-13 22:50:00,11.2,7.0,30.20,West,268,0.0,0.0,84,0.00,,,0.02,weatherlink.com 1.10,2013-02-14 05:50:00,
2013-02-13 23:05:00,10.8,7.0,30.20,West,268,0.0,0.0,85,0.00,,,0.02,weatherlink.com 1.10,2013-02-14 06:05:00,
2013-02-13 23:20:00,10.7,7.0,30.20,SW,232,5.0,5.0,86,0.00,,,0.02,weatherlink.com 1.10,2013-02-14 06:20:00,
2013-02-13 23:35:00,11.0,8.0,30.20,SW,228,1.0,3.0,89,0.00,,,0.02,weatherlink.com 1.10,2013-02-14 06:35:00,
2013-02-13 23:50:00,11.5,9.0,30.20,SW,228,0.0,0.0,90,0.00,,,0.02,weatherlink.com 1.10,2013-02-14 06:50:00,